Probability
0 0 0 0 0 0 0 0 0 0 0 0 0 0 0 0 0 0 0 0 0 0 0 0 0 0 0 0 0 0 0 0 0 0 0 0 0 0 0 0 0 0 0 0
0 0 0 0 0 0 0 0 0 0 0 0 0 0 0 0 0 0 0 0 0 0 0 0 0 0 0 0 0 0 0 0 0 0 0 0 0 0 0 0 0 0 0 0
0 0 0 0 0 0 0 0 0 0 0 0 0 0 0 0 0 0 0 0 0 0 0 0 0 0 0 0 0 0 0 0 0 0 0 0 0 0 0 0 0 0 0 1
0 0 0 0 0 0 0 0 0 0 0 0 0 0 0 0 0 0 0 0 0 0 0 0 0 0 0 0 0 0 0 0 0 0 0 0 0 0 0 0 0 0 0 1
0 0 0 0 0 0 0 0 0 0 0 0 0 0 0 0 0 0 0 0 0 0 0 0 0 0 0 0 0 0 0 0 0 0 0 0 0 0 0 0 0 0 0 1
0 0 0 0 0 0 0 0 0 0 0 0 0 0 0 0 0 0 0 0 0 0 0 0 0 0 0 0 0 0 0 0 0 0 0 0 0 0 0 0 0 0 0 0
0 0 0 0 0 0 0 0 0 0 0 0 0 0 0 0 0 0 0 0 0 0 0 0 0 0 0 0 0 0 0 0 0 0 0 0 0 0 0 0 0 0 0 0
0 0 0 0 0 0 0 0 0 0 0 0 0 0 0 0 0 0 0 0 0 0 0 0 0 0 0 0 0 0 0 0 0 0 0 0 0 0 0 0 0 0 0 0
0 0 0 0 0 0 0 0 0 0 0 0 0 0 0 0 0 0 0 0 0 0 0 0 0 0 0 0 0 0 0 0 0 0 0 0 0 0 0 0 0 0 0 0
0 0 0 0 0 0 0 0 0 0 0 0 0 0 0 0 0 0 0 0 0 0 0 0 0 0 0 0 0 0 0 0 0 0 0 0 0 0 0 0 0 0 0 0
0 0 0 0 0 0 0 0 0 0 0 0 0 0 0 0 0 0 0 0 0 0 0 0 0 0 0 0 0 0 0 0 0 0 0 0 0 0 0 0 0 0 0 0
0 0 0 0 0 0 0 0 0 0 0 0 0 0 0 0 0 0 0 0 0 0 0 0 0 0 0 0 0 0 0 0 0 0 0 0 0 0 0 0 0 0 0 0
0 0 0 0 0 0 0 0 0 0 0 0 0 0 0 0 0 0 0 0 0 0 0 0 0 0 0 0 0 0 0 0 0 0 0 0 0 0 1 0 0 0 0 0
0 0 0 0 0 0 0 0 0 0 0 0 0 0 0 0 0 0 0 0 0 0 0 0 0 0 0 0 0 0 0 0 0 0 0 0 0 0 0 0 0 0 0 0
0 0 0 0 0 0 0 0 0 0 0 0 0 0 0 0 0 0 0 0 0 0 0 0 0 0 0 0 0 0 0 0 0 0 0 0 0 0 0 0 0 0 0 0
0 0 0 0 0 0 0 0 0 0 0 0 0 0 0 0 0 0 0 0 0 0 0 0 0 0 0 0 0 0 0 0 0 0 0 0 0 0 0 0 0 0 0 0
0 0 0 0 0 0 0 0 0 0 0 0 0 0 0 0 0 0 0 0 0 0 0 0 0 0 0 0 0 0 0 0 0 0 0 0 0 0 0 0 0 0 0 0
0 0 0 0 0 0 0 0 0 0 0 0 0 0 0 0 0 0 0 0 0 0 0 0 0 0 0 0 0 0 0 0 0 0 0 0 0 0 0 0 0 0 0 0
0 0 0 0 0 0 0 0 0 0 0 0 0 0 0 0 0 0 0 0 0 0 0 0 0 0 0 0 0 0 0 0 0 0 0 0 0 0 0 0 0 0 0 0
0 0 0 0 0 0 0 0 0 0 0 0 0 0 0 0 0 0 0 0 0 0 0 0 0 0 0 0 0 0 0 0 0 0 0 0 0 0 0 0 0 0 0 0
0 0 0 0 0 0 0 0 0 0 0 0 0 0 0 0 0 0 0 0 0 0 0 0 0 0 0 0 0 0 0 0 0 0 0 0 0 0 0 0 0 0 0 0
0 0 0 0 0 0 0 0 0 0 0 0 0 0 0 0 0 0 0 0 0 0 0 0 0 0 0 0 0 0 0 0 0 0 0 0 0 0 0 0 0 0 0 0
0 0 0 0 0 0 0 0 0 0 0 0 0 0 0 0 0 0 0 0 0 0 0 0 0 0 0 0 0 0 0 0 0 0 0 0 0 0 0 0 0 0 0 0
0 0 0 0 0 0 0 0 0 0 0 0 0 0 0 0 0 0 0 0 0 0 0 0 0 0 0 0 0 0 0 0 0 0 0 0 0 0 0 0 0 0 0 0
0 0 0 0 0 0 0 0 0 0 0 0 0 0 0 0 0 0 0 0 0 0 0 0 0 0 0 0 0 0 0 0 0 0 0 0 0 0 0 0 0 0 0 0
0 0 0 0 0 0 0 0 0 0 0 0 0 0 0 0 0 0 0 0 0 0 0 0 0 0 0 0 0 0 0 0 0 0 0 0 0 0 0 0 0 0 0 0
Wind_Speed
1 2 4 7 7 4 2 3 5 5 3 2 5 8 8 6 3 4 4 4 4 4 3 2 2 3 3 4 3 3 3 2 2 1 1 1 1 1 1 1 2 2 2 2
2 4 7 3 3 3 3 4 4 4 2 2 5 9 8 6 5 6 6 5 4 3 3 3 3 3 3 3 3 3 3 2 2 1 1 1 1 1 1 2 3 3 3 2
6 4 2 3 3 4 5 6 6 5 5 2 3 7 5 4 3 3 3 3 3 3 3 2 2 2 3 3 2 2 2 2 2 2 2 2 2 1 1 2 2 3 3 3
4 3 2 3 4 5 6 5 5 4 2 4 0 6 7 4 4 5 4 3 3 3 2 1 1 1 2 2 2 2 2 3 3 2 3 2 2 1 1 1 1 2 2 2
4 2 2 4 5 6 4 1 3 3 3 3 2 4 9 2 6 7 5 4 3 2 2 1 1 1 1 1 2 2 2 3 3 3 3 2 2 1 1 2 2 2 1 2
4 2 3 4 2 4 3 3 2 1 1 5 6 6 10 5 7 4 3 3 3 2 1 1 1 0 1 2 2 2 2 3 3 3 3 2 2 2 2 2 1 1 1 1
3 2 1 1 2 1 3 4 2 3 2 7 3 6 11 7 4 5 5 4 3 2 1 1 1 1 1 2 2 2 2 2 2 2 2 2 1 1 1 1 1 1 1 1
3 5 4 2 4 4 4 6 6 6 6 6 2 9 9 4 3 2 3 2 2 1 1 1 1 1 0 0 1 1 2 2 2 2 2 2 2 1 1 1 1 1 1 1
5 5 1 1 1 5 4 4 3 3 0 3 7 7 9 3 2 1 1 1 1 1 2 2 2 1 1 0 0 1 1 1 1 1 1 2 2 1 1 1 1 1 1 1
4 4 3 1 1 0 3 4 4 4 3 5 6 6 6 4 4 3 2 2 2 1 1 1 1 1 1 1 0 1 1 1 1 1 1 1 1 1 1 1 1 1 2 1
3 3 3 1 5 6 4 3 3 3 4 5 5 8 5 6 5 5 5 3 3 3 2 2 1 1 0 0 0 0 0 1 1 1 1 1 1 1 1 1 1 1 1 1
4 3 4 6 4 2 4 6 6 5 5 5 5 10 2 3 3 4 4 3 2 2 2 1 1 1 0 0 0 0 0 0 1 1 1 1 1 1 1 1 1 1 1 1
5 4 1 4 2 0 2 4 5 3 3 5 6 10 2 1 1 1 2 2 1 1 1 1 1 1 1 1 0 0 0 0 0 0 1 1 1 0 1 1 1 1 1 2
3 4 7 10 7 4 5 6 6 6 5 7 11 12 8 4 4 3 3 2 1 1 2 2 2 2 2 2 1 1 0 1 1 0 0 1 1 1 1 1 1 1 1 2
3 5 6 8 6 4 7 10 10 11 11 10 11 12 13 7 5 4 3 2 1 2 2 3 3 3 2 2 1 1 1 1 1 1 1 1 2 1 1 1 1 2 2 2
3 3 3 7 5 5 9 13 12 13 12 13 13 15 8 5 2 3 3 3 4 5 4 4 3 3 3 3 3 2 1 1 0 1 1 1 1 1 1 2 2 2 2 2
3 4 3 6 4 3 12 13 13 10 10 10 15 14 4 4 6 5 4 4 5 5 4 4 4 4 4 4 3 3 2 1 1 1 1 1 1 1 2 2 2 2 2 2
6 5 3 2 0 11 11 4 8 11 11 11 9 6 5 7 6 3 4 5 5 5 4 4 4 4 3 3 2 2 1 2 1 1 1 1 1 2 2 2 2 2 2 2
7 7 4 3 6 12 10 5 5 7 10 9 11 8 5 3 2 4 3 4 5 5 5 4 4 3 2 3 3 2 2 2 2 2 2 2 2 2 2 2 3 2 2 2
4 6 5 5 6 11 8 2 2 3 9 6 8 8 5 2 4 6 3 3 3 3 3 2 1 2 2 2 3 3 3 2 3 3 3 2 2 3 3 3 3 3 2 2
4 6 8 8 9 12 6 2 3 6 8 3 5 6 6 7 7 4 2 2 2 2 2 1 2 2 2 2 3 3 3 4 3 2 2 3 3 3 3 3 2 2 2 2
8 7 7 6 8 13 3 5 7 7 3 2 3 4 5 6 4 3 3 3 2 1 1 1 1 1 1 2 3 3 4 3 2 2 2 3 3 3 2 2 2 2 2 2
8 8 7 10 9 3 4 6 5 2 3 3 3 3 3 3 3 3 3 3 2 2 2 1 2 1 1 2 3 4 3 1 1 2 3 3 3 3 2 2 3 2 2 2
4 1 3 5 7 5 5 4 3 3 4 4 3 3 2 3 3 3 2 2 2 2 2 1 1 2 2 2 3 3 2 1 2 3 3 3 3 3 2 2 2 2 3 3
5 4 4 7 6 5 5 5 5 5 4 3 3 2 2 2 3 3 3 3 2 2 1 2 3 3 3 2 2 2 1 2 2 3 3 3 3 3 3 3 3 4 4 5
5 6 7 8 5 5 6 4 3 3 4 3 2 3 2 2 3 3 3 3 2 2 2 2 3 3 3 2 3 2 2 2 3 3 3 3 3 3 3 3 4 6 6 8
Wind_Direction
39 104 212 220 209 206 197 217 259 268 283 261 250 264 274 281 273 268 272 270 266 266 292 351 13 20 26 22 24 28 42 40 56 88 127 126 115 92 73 65 67 75 72 83
57 241 236 218 203 221 230 257 272 292 304 267 277 275 268 254 241 238 242 245 248 269 323 357 12 21 24 19 14 22 36 41 51 60 118 124 117 103 87 65 54 59 67 68
195 232 230 189 193 215 234 229 245 269 320 312 307 293 262 260 241 241 237 242 250 240 252 297 351 358 11 13 3 13 31 42 43 50 75 74 75 70 66 52 46 39 56 65
236 258 201 189 211 198 244 225 225 243 275 283 203 282 275 251 267 255 250 249 253 262 269 271 294 344 351 347 356 21 41 48 46 58 79 90 92 87 51 57 70 55 62 67
244 224 204 218 225 191 224 196 201 232 221 275 234 242 277 259 253 250 241 235 239 246 239 256 255 247 325 356 14 25 51 53 47 59 80 95 79 71 71 63 67 59 56 61
243 225 208 220 211 186 163 77 53 53 103 256 217 205 269 230 225 233 227 228 228 231 240 253 299 9 31 28 37 42 58 52 47 59 69 89 93 76 74 57 50 41 32 39
285 248 236 164 130 159 139 111 23 333 297 250 208 223 252 247 228 212 217 225 231 215 217 237 320 355 32 32 37 46 64 53 42 54 54 61 77 87 91 72 47 27 16 2
225 261 216 188 177 184 193 165 174 209 232 272 233 236 256 260 255 232 223 221 216 207 203 206 215 220 59 40 52 60 76 66 48 54 43 43 55 58 48 40 42 27 349 330
202 252 268 202 199 152 166 199 175 149 195 274 257 268 290 259 280 258 234 221 234 221 208 213 223 211 193 251 9 65 93 70 54 51 51 48 51 48 38 28 28 19 355 345
177 254 279 297 99 213 172 149 129 161 195 250 270 257 250 241 239 232 224 231 241 234 249 260 241 229 200 204 154 61 63 79 62 53 43 45 46 42 40 45 29 6 350 350
171 200 276 257 196 194 154 168 176 179 190 199 259 264 230 220 212 206 217 220 222 223 226 228 240 253 158 95 111 103 54 39 34 24 21 32 27 35 44 39 358 349 349 340
179 167 245 246 246 216 194 191 176 191 228 214 242 267 263 222 206 190 207 219 218 205 205 204 203 175 105 48 288 167 100 41 357 356 359 353 8 28 32 6 346 349 329 323
161 158 270 315 313 179 215 214 204 194 189 208 224 262 290 357 327 234 222 235 226 186 191 194 191 200 209 221 237 324 148 247 319 352 351 342 338 349 351 335 333 334 324 319
163 178 197 223 237 203 235 235 207 190 216 231 233 256 274 279 282 285 277 257 225 206 205 205 214 222 219 212 207 221 283 336 346 341 315 316 311 298 303 312 313 312 305 295
166 217 236 254 260 239 241 242 222 218 223 228 245 248 260 258 247 254 259 261 260 254 237 223 220 220 214 217 224 233 268 317 359 348 312 305 321 334 341 329 324 324 319 307
175 210 232 266 266 258 263 254 236 234 235 239 256 263 259 261 246 237 234 227 242 254 249 240 232 221 217 217 217 223 246 279 307 283 304 321 325 326 328 322 316 315 313 312
191 177 200 260 278 308 261 238 220 222 219 210 235 249 253 263 256 238 227 222 232 242 243 240 236 227 223 218 208 210 217 227 247 273 296 317 316 308 309 312 315 308 304 303
190 189 202 233 194 241 245 211 206 223 238 226 236 250 242 246 257 244 217 218 236 235 234 237 233 225 220 206 198 191 180 194 213 248 275 295 302 299 302 299 292 295 296 290
203 190 192 191 236 267 279 245 193 208 252 230 229 243 247 256 309 276 237 219 224 228 230 231 226 212 200 193 179 168 186 203 216 240 258 265 270 277 282 283 287 290 290 291
200 189 191 194 218 245 255 222 196 169 259 240 214 227 229 209 250 259 244 223 228 233 235 232 202 164 180 190 166 172 200 215 233 244 254 256 256 257 262 271 281 286 281 281
180 195 207 214 233 256 256 226 140 193 249 250 220 224 212 218 232 249 237 239 229 230 232 188 160 178 195 180 166 189 213 231 243 257 261 258 255 259 258 266 274 274 275 280
184 187 200 195 225 250 202 151 193 231 277 274 248 232 224 235 239 242 241 244 235 222 205 158 170 210 192 172 177 210 232 246 255 251 255 259 261 261 259 257 267 268 259 261
203 198 197 201 222 251 175 202 235 259 269 273 260 258 236 236 239 243 243 244 233 211 205 183 189 220 218 192 196 224 245 248 243 249 254 261 265 263 259 247 251 256 247 248
235 225 203 246 257 258 254 263 276 270 270 282 273 258 226 237 248 247 245 248 239 225 212 181 179 214 237 227 238 245 260 235 226 243 256 256 255 264 261 255 244 240 238 245
215 184 212 250 269 291 264 248 259 273 279 289 295 270 238 235 259 254 254 253 245 241 218 192 203 223 239 241 251 268 253 219 236 247 255 257 253 252 258 258 249 249 244 238
199 193 207 241 239 235 263 265 262 259 267 272 278 294 292 234 244 256 256 250 243 236 218 220 229 239 249 248 258 259 236 217 225 245 247 246 252 253 254 264 282 271 268 271